Location: Stuttgart
(48.8069°N, 9.1544°E)
Time: 02:52:12
(UTC+02:00)

ISS - Pass Details

Date: 10 May 2021
Orbit: 417 x 422 km, 51.6° (Epoch: 15 June)

Event Time Altitude Azimuth Distance (km) Brightness Sun altitude
Exits shadow 02:49:05 46° 304° (NW) 580 -3.1 -20.6°
Maximum altitude 02:49:45 56° 351° (N) 506 -3.2 -20.6°
Drops below altitude 10° 02:53:06 10° 70° (ENE) 1,511 -0.4 -20.4°
Sets 02:55:14 0° 75° (ENE) 2,377 0.6 -20.2°
